Regional Weather Roundup
Issued by NWS

Home | Current Version | Previous Version | Graphics & Text | Print | Product List | Glossary On
Versions: 1 2 3 4 5 6 7 8 9 10 11 12 13 14 15 16 17 18 19 20 21 22 23 24 25 26 27
000
ASUS45 KSLC 160510
RWRUT

UTAH REGIONAL WEATHER ROUNDUP
NATIONAL WEATHER SERVICE SALT LAKE CITY UT
1000 PM MST MON JAN 15 2018

UTZ001>011-023>025-160600-

NORTHERN UTAH

CITY           SKY/WX    TMP DP  RH WIND       PRES   REMARKS
BRIGHAM CITY   CLEAR     35  27  70 N7        30.33R WCI  30
HILL AFB       PTCLDY    39  23  51 E15G23    30.30S WCI  31
LOGAN          CLEAR     32  26  78 W5        30.35R WCI  27
OGDEN          CLEAR     31  27  85 W3        30.30S
SALT LAKE CITY PTCLDY    35  30  82 CALM      30.32R
TOOELE VALLEY  PTCLDY    30  28  93 S5        30.33R WCI  25
WENDOVER       MOCLDY    31  25  78 NE5       30.31S WCI  26
HEBER CITY       N/A     32  23  69 SE3       30.35R
WEST JORDAN    PTCLDY    32  29  91 SW5       30.33R WCI  27

$$

UTZ011>015-024>027-160600-

CENTRAL/NORTHEAST UTAH

CITY           SKY/WX    TMP DP  RH WIND       PRES   REMARKS
PROVO AIRPORT  CLEAR     28  25  88 CALM      30.34R
MOAB/CANYONLAN PTCLDY    39  20  46 SE12      30.33R WCI  32
DELTA          MOCLDY    32  28  86 NE5       30.29S WCI  27
PRICE          MOCLDY    34  22  61 N17G29    30.34R WCI  23
ROOSEVELT      CLOUDY    36  18  48 S5        30.47R WCI  32
VERNAL         PTCLDY    29  14  53 NE10      30.44R WCI  20

$$

UTZ013>016-019>022-027-160600-

SOUTHERN UTAH

CITY           SKY/WX    TMP DP  RH WIND       PRES   REMARKS
BRYCE CANYON   CLEAR     24  22  91 W6        30.31R WCI  17
CEDAR CITY     CLEAR     32  27  81 SE3       30.29R
MILFORD        PTCLDY    30  26  85 SE3       30.29R
ST GEORGE      PTCLDY    47  37  68 CALM      30.22R
HANKSVILLE     MOCLDY    32  23  69 NE6       30.37R WCI  26
KANAB          CLEAR     41  27  56 N7G14     30.30
BLANDING         N/A     31  22  69 NW7       30.33R WCI  24

$$

REGIONAL REPORTS     COLORADO/ARIZONA

CITY           SKY/WX    TMP DP  RH WIND       PRES   REMARKS
CRAIG, CO      CLEAR      7   0  73 CALM      30.44R
GRAND JUNCTION PTCLDY    30  21  69 NW10      30.35R WCI  21
RIFLE, CO      PTCLDY    28  19  69 CALM      30.39R
MONTROSE, CO   CLEAR     24  19  81 S6        30.37R WCI  17
CORTEZ, CO     PTCLDY    32  21  64 E6        30.25R WCI  26
COLORADO CITY    N/A     32  30  93 CALM      30.27R
PAGE, AZ       CLEAR     41  31  67 CALM      30.26R HAZE
GRAND CANYON   CLEAR     27  22  81 CALM      30.27R
KINGMAN, AZ    PTCLDY    43  34  70 E3        30.17S
FLAGSTAFF, AZ  PTCLDY    26  20  77 CALM      30.27S

$$

REGIONAL REPORTS    NEVADA/IDAHO/WYOMING

CITY           SKY/WX    TMP DP  RH WIND       PRES   REMARKS
LAS VEGAS, NV  MOCLDY    56  42  59 CALM      30.14S
ELY, NY        PTCLDY    27  20  75 S13       30.29R WCI  16
ELKO, NV       PTCLDY    32  28  85 NE3       30.23S
POCATELLO, ID  CLEAR     28  26  92 N3        30.34R
BURLEY, ID     PTCLDY    36  26  67 NE20      30.27F WCI  25
FORT BRIDGER,  MOCLDY    21  16  79 E8        30.42R WCI  12
EVANSTON, WY   CLEAR     23  17  78 E13       30.36R WCI  11
ROCK SPRINGS,  PTCLDY    14   5  67 CALM      30.43R

$$




USA.gov is the U.S. government's official web portal to all federal, state and local government web resources and services.